千帆星座-76 (QIANFAN-76)

导读

QIANFAN-76 是中国“千帆星座”计划中的一颗低轨卫星,主要用于提供全球卫星互联网服务。该卫星具备高速数据传输和广域覆盖能力,支持多种通信应用场景,如远程教育、应急通信和物联网连接。作为星座组网的一部分,QIANFAN-76 将与其他卫星协同工作,构建稳定、高效的天地一体化网络,助力中国在商业航天和卫星通信领域的快速发展。

Basic Information
目录编号:
63162
目录名称:
QIANFAN-76
国际标识:
2025-046D
轨道中心:
EARTH
卫星名称:
千帆星座-76
卫星全名:
千帆星座-76 (QIANFAN-76)
卫星状态:
在轨 (已飞行459 天)
发射日期:
2025-03-11 UTC
国别 :
中国 (CN)
星等 :
--
Orbit Information
数据来源 国际轨道数据 AOE轨道数据
星历时间 2026-06-12T13:59:34+0800
18小时前
查看轨道信息
2026-06-06T11:00:00+0800
6天前
查看轨道信息
半长轴 7446.667km 7446.674km
偏心率 0.0012048 0.0012669
轨道倾角 88.971° 88.970°
近地点辐角 329.292° 348.999°
升交点赤经 301.303° 301.941°
平近点角 30.753° 120.386°
近地点 1059.558km 1059.102km
远地点 1077.502km 1077.972km
周期 106.587分钟 106.587分钟
每日圈数 13.510141 13.510122
Detailed Information
卫星平台:
76
覆盖范围:
全球
运营商:
上海垣信卫星科技有限公司
运营商所在国:
中国
使用方式:
暂无
Satellite Introduction
千帆星座,也被称为“G60星链”计划,是中国版“星链”的重要组成部分,旨在打造一个由1.4万多颗低轨宽频多媒体卫星构成的庞大星座。千帆星座计划由上海垣信卫星科技有限公司负责实施,于2023年启动建设。该项目是我国第二个低轨卫星大星座,旨在通过构建庞大的卫星网络,为全球用户提供高质量的通信和宽带互联网服务。
2D Orbit Map
3D Orbit Map
Orbit Altitude Analysis Chart
Orbit Inclination Analysis Chart
Orbit Comprehensive Analysis Chart
View Comprehensive Chart